Location: Unspecified
(0.0000°N, 0.0000°E)
Time: 22:59:17
(UTC+00:00)

Envisat - Pass Details

Date: 09 March 2018
Orbit: 764 x 766 km, 98.2° (Epoch: 18 June)

Event Time Altitude Azimuth Distance (km) Brightness Sun altitude
Exits shadow 18:55:39 13° 64° (ENE) 2,116 4.7 -11.3°
Drops below altitude 10° 18:56:57 10° 49° (NE) 2,292 5.0 -11.6°
Sets 19:00:29 0° 23° (NNE) 3,214 5.9 -12.5°
